Other Public Products
Issued by NWS Grand Forks, ND

Home | Current Version | Previous Version | Text Only | Print | Product List | Glossary Off
Versions: 1 2 3 4 5 6 7 8 9 10 11 12 13 14 15 16 17 18 19 20 21 22 23 24 25 26 27 28 29 30 31 32 33 34 35 36 37 38 39 40 41 42 43 44 45 46 47 48 49 50

000
FPUS83 KFGF 290610
OPUFGF
PRAIRIE TO PINES WEATHER ROUNDUP
NATIONAL WEATHER SERVICE EASTERN NORTH DAKOTA/GRAND FORKS ND
100 AM CDT FRI MAY 29 2015

 **SATELLITE DATA USED TO AUGMENT SKY COVER AT AUTOMATED STATIONS**
 *****  WEATHER ACROSS EASTERN NORTH DAKOTA  *****

CITY           SKY/WX    TMP DP  RH WIND       PRES   REMARKS
GRAND FORKS    CLOUDY    60  58  92 N17       29.88R
6HR MIN TEMP:  60; 6HR MAX TEMP:  67; 6HR PCP:  0.01;

GRAND FORKS AF CLOUDY    60  57  87 N12       29.89R
GRAND CITY NWS   N/A     59 N/A N/A N9          N/A
BUXTON         NOT AVBL
DEVILS LAKE    CLOUDY    55  46  71 N24G31    29.96R
6HR MIN TEMP:  55; 6HR MAX TEMP:  73;

FARGO          HVY RAIN  63  61  93 W6        29.86R FOG
6HR MIN TEMP:  63; 6HR MAX TEMP:  66; 6HR PCP:  0.25;

WAHPETON ARPT  CLOUDY    61  59  94 SE9       29.84F
$$

 *****  WEATHER ACROSS CENTRAL AND WESTERN NORTH DAKOTA  *****

CITY           SKY/WX    TMP DP  RH WIND       PRES   REMARKS
JAMESTOWN      MOCLDY    64  60  87 N14       29.88R
6HR MIN TEMP:  63; 6HR MAX TEMP:  75;

BISMARCK       CLOUDY    61  53  75 N20G29    29.96R
6HR MIN TEMP:  61; 6HR MAX TEMP:  74;

MINOT          CLOUDY    50  42  74 N24G32    30.08R
6HR MIN TEMP:  50; 6HR MAX TEMP:  70; 6HR PCP: TRACE;

MINOT AFB      CLOUDY    50  50  99 N18G28    30.08R
6HR MIN TEMP:  50; 6HR MAX TEMP:  74;

GARRISON         N/A     52  46  80 N13G24    30.04R
6HR MIN TEMP:  52; 6HR MAX TEMP:  72;

WILLISTON      CLOUDY    50  38  63 N22G31    30.15R
6HR MIN TEMP:  50; 6HR MAX TEMP:  65; 6HR PCP: TRACE;

DICKINSON      CLOUDY    56  51  84 N14       30.05R
6HR MIN TEMP:  56; 6HR MAX TEMP:  71; 6HR PCP: TRACE;

HETTINGER      CLOUDY    57  53  86 N16       30.02R
6HR MIN TEMP:  54; 6HR MAX TEMP:  66; 6HR PCP:  0.21;

$$

 *****  OTHER OBSERVATIONS NORTHEAST NORTH DAKOTA  *****

CITY           SKY/WX    TMP DP  RH WIND       PRES   REMARKS
WALHALLA         N/A     50  50 100 MISG      29.98R
LANGDON        CLOUDY    52  46  82 N25G35    29.98R
CAVALIER       NOT AVBL
GRAFTON        MOCLDY    57  57 100 N15       29.92R
CANDO          CLOUDY    50  48  93 N24G35    30.00R
FORT TOTTEN    NOT AVBL
ROLLA          FAIR      46  46 100 N23G30    30.05R FOG
RUGBY          NOT AVBL
 ***** THE ABOVE OBSERVATIONS ARE NON NWS ARE NOT QUALITY
        CONTROLLED AND MAY MIS-REPORT RAIN FOR SNOW...
$$

 *****  OTHER OBSERVATIONS SOUTHEAST NORTH DAKOTA *****

CITY           SKY/WX    TMP DP  RH WIND       PRES   REMARKS
COOPERSTOWN    NOT AVBL
VALLEY CITY    CLOUDY    64  64 100 N14       29.87S
OAKES            N/A     61  61 100 N8        29.85S
GWINNER        NOT AVBL
SHEYENNE NWR     N/A     62  61  96 NW7       29.95
BUFFALO        NOT AVBL
WYNDMERE       NOT AVBL
 ***** THE ABOVE OBSERVATIONS ARE NON NWS ARE NOT QUALITY
       CONTROLLED AND MAY MIS-REPORT RAIN FOR SNOW...
$$

  *****  WEATHER ACROSS NORTHERN MINNESOTA  *****

CITY           SKY/WX    TMP DP  RH WIND       PRES   REMARKS
FLAG ISLAND    CLOUDY    59  57  94 NW9       29.84R
WARROAD        CLOUDY    61  55  82 NW7       29.85F
ROSEAU         CLOUDY    61  55  82 N8        29.85S
HALLOCK        CLOUDY    57  55  94 N13G20    29.90R
THF RVR FALLS  CLOUDY    63  61  94 NW10      29.86S
6HR MIN TEMP:  63; 6HR MAX TEMP:  66; 6HR PCP:  0.01;

HALSTAD        NOT AVBL
FOSSTON        CLOUDY    61  57  88 CALM      29.86S
BAUDETTE       CLOUDY    60  59  96 NW6       29.84S
6HR MIN TEMP:  60; 6HR MAX TEMP:  62; 6HR PCP:  0.34;

WASKISH        CLOUDY    61  59  94 CALM      29.85S
CROOKSTON      CLOUDY    63  61  94 N15G21    29.87R FOG
$$
  *****  WEATHER ACROSS CENTRAL AND WEST MINNESOTA  *****

CITY           SKY/WX    TMP DP  RH WIND       PRES   REMARKS
BEMIDJI        RAIN      60  58  94 S6        29.85F
PARK RAPIDS    RAIN      61  59  93 S3        29.87F
6HR MIN TEMP:  61; 6HR MAX TEMP:  78; 6HR PCP:  0.55;

WADENA         LGT RAIN  61  59  94 CALM      29.88F
DETROIT LAKES  LGT RAIN  59  59 100 S7        29.86F
MOORHEAD       RAIN      63  61  94 S6        29.87R
FERGUS FALLS   LGT RAIN  61  61 100 S8        29.88F
ELBOW LAKE     CLOUDY    60  59  99 SE7       29.88F
6HR MIN TEMP:  59; 6HR MAX TEMP:  80; 6HR PCP:  0.87;

MORRIS MN      LGT RAIN  61  61 100 CALM      29.90F
STAPLES        HVY RAIN  61  57  88 NW3       29.91S
WHEATON        CLOUDY    59  57  94 E14       29.88F
$$
  *****  WEATHER ELSEWHERE ACROSS MINNESOTA  *****

CITY           SKY/WX    TMP DP  RH WIND       PRES   REMARKS
DULUTH         CLOUDY    46  42  86 SE3       29.90F
6HR MIN TEMP:  44; 6HR MAX TEMP:  48;

INTRNTL FALLS  CLOUDY    59  57  93 CALM      29.84S
6HR MIN TEMP:  58; 6HR MAX TEMP:  62; 6HR PCP:  0.45;

ELY            NOT AVBL
CLOQUET        CLOUDY    43  43 100 E3        29.91F FOG
BRAINERD       CLOUDY    69  55  60 W7        29.89R
6HR MIN TEMP:  69; 6HR MAX TEMP:  79;

HIBBING        CLOUDY    57  48  72 SW5       29.89F
6HR MIN TEMP:  56; 6HR MAX TEMP:  73;

ALEXANDRIA     CLOUDY    61  58  90 N6        29.91F
6HR MIN TEMP:  61; 6HR MAX TEMP:  80; 6HR PCP:  0.04;

SAINT CLOUD    PTCLDY    67  58  72 S9        29.87F
6HR MIN TEMP:  67; 6HR MAX TEMP:  80;

MINNEAPOLIS    CLOUDY    72  57  59 S8        29.91F
6HR MIN TEMP:  72; 6HR MAX TEMP:  81;

$$

  *****  WEATHER ACROSS SOUTH DAKOTA  *****

CITY           SKY/WX    TMP DP  RH WIND       PRES   REMARKS
SIOUX FALLS    PTCLDY    67  63  87 S13       29.87F
6HR MIN TEMP:  66; 6HR MAX TEMP:  73;

BROOKINGS      MOCLDY    63  57  82 SE10      29.88F
WATERTOWN      HVY RAIN  61  59  93 NE9       29.89S FOG
6HR MIN TEMP:  61; 6HR MAX TEMP:  78; 6HR PCP:  0.43;

HURON            N/A    N/A N/A N/A MISG      29.83F
SISSETON         N/A     62  62 100 S15       29.88R
ABERDEEN       CLOUDY    62  60  93 S7        29.85R
6HR MIN TEMP:  62; 6HR MAX TEMP:  81; 6HR PCP:  0.32;

MITCHELL       CLOUDY    65  60  84 SE5       29.85F THUNDER
PIERRE         CLOUDY    59  56  89 W9        29.87F
6HR MIN TEMP:  59; 6HR MAX TEMP:  69; 6HR PCP: TRACE;

MOBRIDGE       CLOUDY    65  61  87 NE14      29.87R
RAPID CITY     CLOUDY    58  51  78 N14       30.00S
6HR MIN TEMP:  55; 6HR MAX TEMP:  59; 6HR PCP:  0.06;

$$

  *****  SOME WEATHER IN NEARBY STATES *****

CITY           SKY/WX    TMP DP  RH WIND       PRES   REMARKS
GLASGOW MT     PTCLDY    45  39  79 N7        30.25R
6HR MIN TEMP:  45; 6HR MAX TEMP:  60;

GREAT FALLS MT CLOUDY    45  44  97 N5        30.32F FOG
6HR MIN TEMP:  45; 6HR MAX TEMP:  50; 6HR PCP:  0.08;

CHEYENNE WY    CLOUDY    50  40  68 N16G23    30.18R
6HR MIN TEMP:  50; 6HR MAX TEMP:  64;

SCOTTSBLUFF NE CLOUDY    55  52  89 N7        30.07F
6HR MIN TEMP:  55; 6HR MAX TEMP:  68; 6HR PCP:  0.06;

OMAHA NE       CLOUDY    68  63  84 S14       29.92S
6HR MIN TEMP:  67; 6HR MAX TEMP:  72;

DES MOINES IA  MOCLDY    65  62  90 S7        29.96S
6HR MIN TEMP:  65; 6HR MAX TEMP:  74;

DAVENPORT IA   LGT RAIN  67  61  81 S6        30.02S
6HR MIN TEMP:  66; 6HR MAX TEMP:  80; 6HR PCP: TRACE;

CHICAGO IL     MOCLDY    65  55  70 SE5       30.05S
6HR MIN TEMP:  64; 6HR MAX TEMP:  79;

EAU CLAIRE WI  LGT RAIN  67  57  70 S6        29.98R
6HR MIN TEMP:  67; 6HR MAX TEMP:  79; 6HR PCP: TRACE;

LA CROSSE WI   LGT RAIN  70  59  68 S3        29.97S
6HR MIN TEMP:  70; 6HR MAX TEMP:  81; 6HR PCP: TRACE;

$$

  *****  SOME NATIONAL WEATHER *****

CITY           SKY/WX    TMP DP  RH WIND       PRES   REMARKS
LA GUARDIA NY  PTCLDY    69  53  56 N9        30.25R


USA.gov is the U.S. government's official web portal to all federal, state and local government web resources and services.